Regional Weather Roundup
Issued by NWS

Home | Current Version | Previous Version | Text Only | Print | Product List | Glossary Off
Versions: 1 2 3 4 5 6 7 8 9 10 11 12 13 14 15 16 17 18 19 20 21 22 23 24 25 26 27 28 29 30 31 32 33 34 35 36 37 38 39 40 41 42 43 44 45 46 47 48 49 50

000
ASUS43 KLOT 242108
RWRIL

ILLINOIS REGIONAL WEATHER ROUNDUP
NATIONAL WEATHER SERVICE CHICAGO/ROMEOVILLE IL
400 PM CDT WED MAY 24 2017

NOTE: "FAIR" INDICATES FEW OR NO CLOUDS BELOW 12,000 FEET WITH NO
SIGNIFICANT WEATHER AND/OR OBSTRUCTIONS TO VISIBILITY.

* THESE STATIONS ARE NOT UNDER NWS QUALITY CONTROL. THEY ALSO MAY NOT
  REPORT WEATHER SUCH AS PRECIPITATION OR FOG.

ILZ001-002-007-009-015-016-024-242200-
NORTHWEST ILLINOIS

CITY           SKY/WX    TMP DP  RH WIND       PRES   REMARKS
MOLINE         CLOUDY    62  51  67 N13       29.60S
STERLING*      CLOUDY    58  54  86 N8        29.60S
SAVANNA*       CLOUDY    59  52  76 N8        29.61S
$$

ILZ003-004-008-010-011-017-018-242200-
NORTH CENTRAL ILLINOIS

CITY           SKY/WX    TMP DP  RH WIND       PRES   REMARKS
ROCKFORD       CLOUDY    60  53  77 N14       29.60S
FREEPORT*      CLOUDY    56  52  85 N10       29.63S
ROCHELLE*      CLOUDY    58  55  87 N15       29.58F
DE KALB*       CLOUDY    59  53  80 NE16      29.57S
PERU*          CLOUDY    59  53  82 N12       29.57S
$$

ILZ005-006-012>014-019>023-242200-
NORTHEAST ILLINOIS

CITY           SKY/WX    TMP DP  RH WIND       PRES   REMARKS
CHICAGO-OHARE  CLOUDY    60  50  69 NE18G26   29.54F
CHICAGO-MIDWAY CLOUDY    59  52  77 N18       29.54S
AURORA         CLOUDY    62  53  72 N16       29.55F
LANSING*       LGT RAIN  55  52  92 N15       29.54S
JOLIET*        CLOUDY    63  55  75 N12       29.54S
WAUKEGAN       PTSUNNY   60  52  74 N20G29    29.55F
DUPAGE AIRPORT CLOUDY    62  54  74 NE16      29.54F
KANKAKEE*      CLOUDY    61  53  75 CALM      29.53S
WHEELING       PTSUNNY   60  52  74 N16G28    29.57R
MORRIS*        CLOUDY    62  53  73 CALM      29.53S
ROMEOVILLE*    CLOUDY    60  56  86 N14       29.54S
NORTHERLY ISL    N/A     53  49  86 MISG        N/A
$$

LMZ740>746-242200-
SOUTHERN LAKE MICHIGAN

STATION/POSITION SKY/WX   TEMP    WIND        PRES    VSBY  WAVE
                          AIR SEA DIR/SP/G                  HT/PER
                          (F)     (DEG/KT/KT) (MB)    (MI)  (FT/S)
SOUTHERN BUOY              48 45   10/ 19/ 21 1000.2          4/ 5
WILMETTE HARBOR            49 52                N/A           5/ 5
HARRISON CRIB              52     350/ 26/ 28   N/A
BURNHAM HARBOR             53     340/ 17/ 19   N/A
CALUMET HARBOR             53     330/ 13/ 19 1000.1S
BURNS HARBOR               51     300/  6/  8 1000.7S
MICHIGAN CITY              55      80/  3/  4   N/A
MICHIGAN CITY 6N           52 54  160/  6/ 12   N/A           3/ 5
ST. JOSEPH                 54 56   40/ 12/ 14  999.2          3/ 4
$$

ILZ025>027-034>036-040-047-049-050-058-095>099-242200-
WEST-CENTRAL ILLINOIS

CITY           SKY/WX    TMP DP  RH WIND       PRES   REMARKS
QUINCY         CLOUDY    65  50  58 NW12      29.58F
GALESBURG*     PTSUNNY   62  53  71 N17G25    29.58S
MACOMB*        RAIN      60  53  76 NW9       29.60S
JACKSONVILLE*  PTSUNNY   65  53  65 NW14      29.55F
PITTSFIELD*    MOSUNNY   62  51  67 N10       29.59S
$$

ILZ028>032-037-038-041>044-048-051>054-059>061-242200-
CENTRAL ILLINOIS

CITY           SKY/WX    TMP DP  RH WIND       PRES   REMARKS
PONTIAC        CLOUDY    62  57  85 N10       29.54F
BLOOMINGTON    LGT RAIN  58  56  93 NW12      29.55R
DECATUR        LGT RAIN  62  55  77 N10       29.51F
PEORIA         CLOUDY    61  54  77 N8        29.57S
LACON*         CLOUDY    59  55  85 N9        29.56S
LINCOLN*       CLOUDY    65  56  73 N13G18    29.53F
SPRINGFIELD    CLOUDY    66  56  70 NW10      29.53F
TAYLORVILLE    CLOUDY    63  53  71 NW15      29.52F
$$

ILZ033-039-045-046-055>057-062-063-242200-
EAST-CENTRAL ILLINOIS

CITY           SKY/WX    TMP DP  RH WIND       PRES   REMARKS
CHAMPAIGN      LGT RAIN  59  57  93 NW13      29.51F FOG
RANTOUL*       DRIZZLE   61  58  91 N10       29.51S
MATTOON        LGT RAIN  60  57  89 N13       29.50S
PARIS*         LGT RAIN  58  58  97 N8        29.49S
$$

ILZ079-100>102-242200-
SOUTHWEST ILLINOIS

CITY           SKY/WX    TMP DP  RH WIND       PRES   REMARKS
ALTON          PTSUNNY   61  52  72 NW9       29.55F
BELLEVILLE     PTSUNNY   66  53  61 NW16      29.55S
CAHOKIA*       PTSUNNY   69  47  45 NW15      29.55S
SPARTA*        PTSUNNY   66  49  54 NW8       29.55F
$$

ILZ064>066-069>071-074>076-080>082-084>086-088>090-092>094-242200-
SOUTH-CENTRAL ILLINOIS

CITY           SKY/WX    TMP DP  RH WIND       PRES   REMARKS
CARBONDALE     CLOUDY    65  49  56 NW10      29.53S
CAIRO*         CLOUDY    66  49  54 NW14G20   29.54S
EFFINGHAM*     RAIN      61  59  94 W5        29.52F
MARION         PTSUNNY   66  50  55 W10       29.53S
MT. VERNON       N/A     64  53  67 VRB3      29.52S
CENTRALIA*     CLOUDY    65  53  64 NW7       29.51S
SALEM*         CLOUDY    65  52  62 NW9       29.52S
METROPOLIS*    PTSUNNY   68  49  49 NW9G17    29.52S
$$

ILZ067-068-072-073-078-083-087-091-242200-
SOUTHEAST ILLINOIS

CITY           SKY/WX    TMP DP  RH WIND       PRES   REMARKS
LAWRENCEVILLE  LGT RAIN  60  58  92 NW16      29.47F FOG
FLORA*         DRIZZLE   62  57  83 N5        29.51F
FAIRFIELD*     DRIZZLE   62  53  72 N5        29.50S
HARRISBURG*    PTSUNNY   64  53  66 NW7       29.51F
ROBINSON*      LGT RAIN  57  56  96 NW8       29.48S
CARMI*         RAIN      60  56  87 NW8       29.50S
$$

ABBREVIATIONS USED IN REMARKS
   TC - TEMPERATURE IN CELSIUS
  WCI - WIND CHILL INDEX
   HX - HEAT INDEX
  VSB - VISIBILITY
$$





USA.gov is the U.S. government's official web portal to all federal, state and local government web resources and services.